Skip Page Navigation
NASA JPL Caltech
NASA Logo - Jet Propulsion Laboratory + View the NASA Portal
+ Center for Near-Earth Object Studies
JPL Home Earth Solar System Stars & Galaxies Technology
JPL Solar System Dynamics
BODIES ORBITS EPHEMERIDES TOOLS PHYSICAL DATA DISCOVERY FAQ SITE MAP
IMPORTANT: The SSD Announcement email list is now available. Major changes are coming in the near future, including possible hostname and/or URL changes. To be notified of such changes, subscribe to this email list.

Please visit this page for more details.


JPL Small-Body Database Browser
Search: [ help ]  
39701 (1996 TF10)
Classification: Main-belt Asteroid          SPK-ID: 2039701
Ephemeris | Orbit Diagram | Orbital Elements | Mission Design | Physical Parameters | Discovery Circumstances ]

[ show orbit diagram ]
Orbital Elements at Epoch 2458600.5 (2019-Apr-27.0) TDB
Reference: JPL 29 (heliocentric ecliptic J2000)
 Element Value Uncertainty (1-sigma)   Units 
e .09968385472991766 4.1675e-08  
a 2.356529481702398 9.9046e-09 au
q 2.121621539181608 9.619e-08 au
i 4.551997462735379 4.5488e-06 deg
node 345.4754938610001 4.1367e-05 deg
peri 36.51098532574981 4.7081e-05 deg
M 76.90544857807927 1.9908e-05 deg
tp 2458318.231541237219
(2018-Jul-18.73154124)
7.3299e-05 TDB
period 1321.319191727146
3.62
8.3304e-06
2.281e-08
d
yr
n .2724549845744921 1.7177e-09 deg/d
Q 2.591437424223188 1.0892e-08 au
  Orbit Determination Parameters
   # obs. used (total)      1515  
   data-arc span      9721 days (26.61 yr)  
   first obs. used      1992-07-27  
   last obs. used      2019-03-09  
   planetary ephem.      DE431  
   SB-pert. ephem.      SB431-N16  
   condition code      0  
   norm. resid. RMS      .49548  
   source      ORB  
   producer      Otto Matic  
   solution date      2019-Jul-13 02:08:03  

Additional Information
 Earth MOID = 1.12513 au 
 Jupiter MOID = 2.81631 au 
 T_jup = 3.543 
[ show covariance matrix ]

Ephemeris | Orbit Diagram | Orbital Elements | Mission Design | Physical Parameters | Discovery Circumstances ]

Physical Parameter Table
Parameter Symbol Value Units Sigma Reference Notes
absolute magnitude H 14.5   n/a MPO468237  
diameter diameter 3.748 km 0.128 urn:nasa:pds:neowise_diameters_albedos::2.0[mainbelt] (http://adsabs.harvard.edu/abs/2011ApJ...741...68M)  
geometric albedo albedo 0.263   0.046 urn:nasa:pds:neowise_diameters_albedos::2.0[mainbelt] (http://adsabs.harvard.edu/abs/2011ApJ...741...68M)  

39701 (1996 TF10)          Discovered 1996-Oct-09 by Ueda, S., Kaneda, H. at Kushiro
Reference: 20020526/Numbers.arcLast Updated: 2004-04-19

Alternate Designations
 1996 TF10 = 1992 OL9 = 1998 FG18 
Ephemeris | Orbit Diagram | Orbital Elements | Mission Design | Physical Parameters | Discovery Circumstances ]
ABOUT SSD CREDITS/AWARDS PRIVACY/COPYRIGHT GLOSSARY LINKS
FirstGov 2020-Jan-24 00:10 UT
(server date/time)  
NASA Home Page
Site Manager:   Ryan S. Park
Webmaster  Alan B. Chamberlin